Terminal Aerodrome Forecast
Issued by NWS

Home | Current Version | Previous Version | Text Only | Print | Product List | Glossary On
Versions: 1 2 3 4 5 6 7 8 9 10 11 12 13 14 15
000
FTUS43 KEAX 190900 CCA
TAFMKC
TAF COR
KMKC 190928Z 1909/2006 22004KT P6SM VCTS SCT100CB
     FM191200 17005KT P6SM SCT050 BKN100
     FM191800 VRB06KT P6SM SCT250=

USA.gov is the U.S. government's official web portal to all federal, state and local government web resources and services.